[ hide orbit diagram ]
For accurate long-term ephemerides, please instead use our Horizons system.This orbit viewer was implemented using two-body methods, and hence should not be used for determining accurate long-term trajectories (over several years or decades) or planetary encounter circumstances.
Orbital Elements at Epoch 2459000.5 (2020-May-31.0) TDB
Reference: JPL 24 (heliocentric ecliptic J2000)
Element | Value | Uncertainty (1-sigma) | Units |
e | .08582927151588253 | 3.736e-08 | |
a | 2.643879082350557 | 1.4241e-08 | au |
q | 2.416956866736328 | 1.0067e-07 | au |
i | 11.41151145092798 | 4.5102e-06 | deg |
node | 313.1852234455864 | 2.0181e-05 | deg |
peri | 165.632176071547 | 3.2609e-05 | deg |
M | 323.2270789897813 | 2.5922e-05 | deg |
tp | 2459160.893379546191 (2020-Nov-07.39337955) | 0.00011319 | TDB |
period | 1570.221104289847 4.30 | 1.2686e-05 3.473e-08 | d yr |
n | .2292670752013708 | 1.8523e-09 | deg/d |
Q | 2.870801297964785 | 1.5463e-08 | au |
|
| | Orbit Determination Parameters
Additional Information
|
[ show covariance matrix ]
Physical Parameter Table
Parameter |
Symbol |
Value |
Units |
Sigma |
Reference |
Notes |
absolute magnitude |
H |
14.8 |
|
n/a |
MPO502366 |
|
|
27859 (1995 BB2) Discovered 1995-Jan-29 by Kobayashi, T. at Oizumi |
Reference: 20010902/Numbers.arc | Last Updated: 2004-04-19 |
|
[ show close-approach data ]
|